Flag for USA

Past Weather in Louisville Convention Historical Marker, Kentucky, USA — Yesterday and Last 2 Weeks

Now
75 °F

Overcast.


Feels Like: 78 °F
Forecast: 78 / 57 °F
Wind: 15 mph from Southwest

Location: Standiford Field

Current Time: Apr 18, 2019 at 4:50:07 pm

Latest Report: Apr 18, 2019 at 3:56 pm


Visibility: 10 mi

Pressure: 29.65 "Hg

Humidity: 52%

Dew Point: 56 °F

Location of Louisville Convention Historical MarkerLocation

Past Weather in Louisville Convention Historical Marker — Graph

°F

Louisville Convention Historical Marker Temperature Yesterday

Maximum temperature yesterday: 80 °F (at 3:56 pm)
Minimum temperature yesterday: 62 °F (at 7:56 am)
Average temperature yesterday: 72 °F

High & Low Weather Summary for the Past Weeks

 TemperatureHumidityPressure
High84 °F (Apr 11, 4:56 pm)93% (Apr 7, 7:56 am)30.31 "Hg (Apr 7, 7:56 am)
Low38 °F (Apr 15, 4:56 am)25% (Apr 9, 3:56 pm)29.36 "Hg (Apr 14, 12:56 pm)
Average63 °F59%29.94 "Hg
* Reported Apr 3 2:56 pm — Apr 18 2:56 pm, Louisville Convention Historical Marker. Weather by CustomWeather, © 2019

Note: Actual official high and low records may vary slightly from our data, if they occured in-between our weather recording intervals... More about our weather records

Advertising

Louisville Convention Historical Marker Weather History for the Previous 24 Hours

Scroll right to see more
 ConditionsComfort  
Time TempWeatherWind HumidityBarometerVisibility
2:56 pm
Thu, Apr 18
74 °FOvercast.17 mph52%29.68 "Hg10 mi
1:56 pm73 °FMore clouds than sun.17 mph53%29.71 "Hg10 mi
12:56 pm73 °FOvercast.16 mph53%29.75 "Hg10 mi
11:56 am75 °FMostly cloudy.18 mph50%29.76 "Hg10 mi
10:56 am73 °FMostly cloudy.20 mph53%29.76 "Hg10 mi
9:56 am70 °FCloudy.17 mph57%29.79 "Hg10 mi
7:56 am67 °FMostly cloudy.12 mph59%29.77 "Hg10 mi
6:56 am67 °FMostly cloudy.10 mph57%29.77 "Hg10 mi
5:56 am69 °FMostly cloudy.13 mph51%29.76 "Hg10 mi
4:56 am70 °FMostly cloudy.16 mph49%29.75 "Hg10 mi
3:56 am71 °FOvercast.14 mph47%29.76 "Hg10 mi
2:56 am72 °FMostly cloudy.14 mph44%29.78 "Hg10 mi
1:56 am72 °FPartly cloudy.13 mph43%29.78 "Hg10 mi
12:56 am72 °FPassing clouds.10 mph43%29.80 "Hg10 mi
11:56 pm
Wed, Apr 17
73 °FPassing clouds.14 mph41%29.81 "Hg10 mi
10:56 pm74 °FPassing clouds.14 mph38%29.82 "Hg10 mi
9:56 pm74 °FPassing clouds.12 mph40%29.82 "Hg10 mi
8:56 pm76 °FMostly cloudy.10 mph37%29.82 "Hg10 mi
7:56 pm77 °FMostly cloudy.13 mph33%29.82 "Hg10 mi
6:56 pm78 °FCloudy.12 mph33%29.83 "Hg10 mi
5:56 pm78 °FPartly sunny.18 mph35%29.85 "Hg10 mi
4:56 pm79 °FBroken clouds.20 mph41%29.86 "Hg10 mi
Weather by CustomWeather, © 2019

See weather overview